Content
SEND FEEDBACK

Daily
Averages
Monthly
Summary
Philippines

PUNTA ENGANA, PHILIPPINES


Home > Asia > Philippines
Elevation: 79 feet     Latitude: 10 18N     Longitude: 123 58E

WEATHER
 
SELECT A DAY
Number of Records: 155,060;   Date Range: 2/21/97 - 7/22/14
 
SHARE

PRINT THIS DATA

[ ← Previous Day ]
WEATHER ALMANAC - FEBRUARY 1, 2013
[ Next Day → ]
[ °C ]   °F
Weather ElementAverageHighLow
Temperature80.3 °F86 °F (12:00 pm)75.2 °F (2:00 am)
Dewpoint74.9 °F81 °F (2:00 pm)73.4 °F (1:00 am)
Humidity83.1 %94 % (2:00 am)70 % (9:00 am)
Barometer29.95 in29.99 in (11:00 pm)29.89 in (3:00 pm)
Wind Speed5.1 mph13.8 mph (6:00 pm)
Weather ElementAverage
Visibility8.1 mi
Wind DirectionSE (130.4 °)

Weather ElementTotal
Precipitation---
Cooling Degree Days15.6 (Base 65)
Growing Degree Days30.6 (Base 50)
Averaged from 31 records on February 1, 2013
WEATHER CONDITIONS BREAKOUT
WIND DIRECTION BREAKOUT
WEATHER BY HOUR - FEBRUARY 1, 2013
[ °C ]   °F
Local TimeTemperatureDewpointHumidityBarometerVisibilityWind DirectionWind SpeedGust SpeedPrecipitationEventsConditions
1:00 AM77.0 °F73.4 °F89 %29.95 in6.2 miNNW (330°)2.3 mphScattered Clouds
2:00 AM77.0 °F74.0 °F90 %29.94 in9.0 miCalmPartly Cloudy
2:00 AM75.2 °F73.4 °F94 %29.95 in6.2 miNNW (340°)2.3 mphScattered Clouds
3:00 AM75.2 °F73.4 °F94 %29.92 in6.2 miVariable1.2 mphPartly Cloudy
4:00 AM75.2 °F73.4 °F94 %29.95 in6.2 miVariable2.3 mphScattered Clouds
5:00 AM78.0 °F76.0 °F90 %29.95 in11.0 miCalmScattered Clouds
5:00 AM75.2 °F73.4 °F94 %29.95 in6.2 miNorth (350°)4.6 mphPartly Cloudy
6:00 AM75.2 °F73.4 °F94 %29.95 in6.2 miNorth (10°)3.5 mphScattered Clouds
7:00 AM77.0 °F73.4 °F89 %29.95 in6.2 miNorth (360°)4.6 mphMostly Cloudy
8:00 AM82.0 °F76.0 °F78 %29.98 in16.0 miCalmScattered Clouds
8:00 AM80.6 °F73.4 °F79 %29.98 in6.2 miNorth (10°)3.5 mphPartly Cloudy
9:00 AM84.2 °F73.4 °F70 %29.98 in6.2 miNNE (30°)9.2 mphPartly Cloudy
10:00 AM84.2 °F73.4 °F70 %29.98 in6.2 miNNE (30°)9.2 mphScattered Clouds
11:00 AM84.0 °F78.0 °F76 %29.96 in16.0 miNorth6.7 mphPartly Cloudy
11:00 AM84.2 °F75.2 °F74 %29.98 in6.2 miNNE (30°)10.4 mphScattered Clouds
12:00 PM86.0 °F75.2 °F70 %29.95 in6.2 miNE (40°)9.2 mphScattered Clouds
1:00 PM84.2 °F73.4 °F70 %29.92 in6.2 miEast (80°)9.2 mphMostly Cloudy
2:00 PM86.0 °F81.0 °F81 %29.90 in19.0 miNorth4.5 mphPartly Cloudy
2:00 PM84.2 °F73.4 °F70 %29.92 in6.2 miEast (80°)9.2 mphMostly Cloudy
3:00 PM82.4 °F75.2 °F79 %29.89 in6.2 miNNE (20°)11.5 mphMostly Cloudy
4:00 PM82.4 °F75.2 °F79 %29.89 in6.2 miNE (40°)6.9 mphOvercast
5:00 PM82.0 °F78.0 °F83 %29.91 in16.0 miSE (140°)6.7 mphPartly Cloudy
5:00 PM80.6 °F75.2 °F84 %29.92 in6.2 miNNE (30°)6.9 mphMostly Cloudy
6:00 PM80.6 °F75.2 °F84 %29.92 in6.2 miNNE (30°)13.8 mphScattered Clouds
7:00 PM80.6 °F75.2 °F84 %29.92 in6.2 miNNE (20°)4.6 mphMostly Cloudy
8:00 PM80.0 °F76.0 °F85 %29.96 in11.0 miCalmPartly Cloudy
8:00 PM80.6 °F75.2 °F84 %29.95 in6.2 miNorth (360°)4.6 mphMostly Cloudy
9:00 PM78.8 °F75.2 °F89 %29.95 in6.2 miNorth (350°)2.3 mphMostly Cloudy
10:00 PM78.8 °F75.2 °F89 %29.98 in6.2 miNorth (360°)2.3 mphMostly Cloudy
11:00 PM79.0 °F76.0 °F87 %29.99 in11.0 miCalmScattered Clouds
11:00 PM78.8 °F73.4 °F83 %29.98 in6.2 miNorth (350°)6.9 mphMostly Cloudy
Hourly data recorded from RPVM, located miles away from Punta Engana, Philippines







STORIES FROM OUR PARTNERS